Location: Roanoke
(37.2710°N, 79.9420°W)
Time: 22:55:58
(UTC-05:00)

S-56A Canister/Altair - Pass Details

Date: 22 November 2019
Orbit: 633 x 2499 km, 38.9° (Epoch: 06 December)

Event Time Altitude Azimuth Distance (km) Brightness Sun altitude
Rises 14:28:42 0° 219° (SW) 6,069 13.6 23.4°
Reaches altitude 10° 14:33:10 10° 214° (SSW) 4,922 13.7 22.9°
Maximum altitude 14:45:31 44° 149° (SSE) 2,453 10.5 21.3°
Drops below altitude 10° 14:54:24 10° 81° (E) 3,579 10.6 20.2°
Sets 14:57:06 0° 75° (ENE) 4,322 10.9 19.8°
